Mount Pleasant, MI

7:19 AM EST on December 11, 2016 (GMT -0500)
Mount Pleasant Municipal

Weather History for KMOP - November, 2013

Change the Weather History Date:

Saturday, November 2, 2013

  Actual Average (KAMN) Record (KAMN)
Temperature  
Mean Temperature 42 °F -  
Max Temperature 47 °F 55 °F 75 °F (1990)
Min Temperature 37 °F 36 °F 23 °F (1951)
Degree Days  
Heating Degree Days 23    
Moisture  
Dew Point 37 °F    
Average Humidity 81    
Maximum Humidity 94    
Minimum Humidity 53    
Precipitation  
Precipitation 0.05 in - - ()
Sea Level Pressure  
Sea Level Pressure 29.85 in    
Wind  
Wind Speed 3 mph (North)    
Max Wind Speed 10 mph    
Max Gust Speed -    
Visibility 10 miles    
Events Rain    
Averages and records for this station are not official NWS values.
T = Trace of Precipitation, MM = Missing Value Source: NWS Daily Summary

Daily Weather History Graph

Daily Weather History Graph

Search for Another Location

Airport or City:

Trip Planner

Search our weather history database for the weather conditions in past years. The results will help you decide how hot, cold, wet, or windy it might be!

Date:

Astronomy

Nov. 02, 2013 Rise Set
Actual Time 8:16 AM EDT 6:28 PM EDT
Civil Twilight 7:46 AM EDT 6:58 PM EDT
Nautical Twilight 7:12 AM EDT 7:31 PM EDT
Astronomical Twilight 6:38 AM EDT 8:05 PM EDT
Moon 7:11 AM EDT (11/2) 5:59 PM EDT (11/2)
Length of Visible Light 11h 11m
Length of Day
10h 11m
Waning Crescent, 1% of the Moon is Illuminated
Nov 2
Waning Crescent
Nov 3
New
Nov 10
First Quarter
Nov 17
Full
Nov 25
Last Quarter

Hourly Weather History & Observations

Time (EDT) Temp. Windchill Dew Point Humidity Pressure Visibility Wind Dir Wind Speed Gust Speed Precip Events Conditions
12:16 AM 45.0 °F - 43.0 °F 93% 29.64 in 10.0 mi Calm Calm - 0.01 in Rain Light Rain
12:36 AM 45.0 °F - 43.2 °F 93% 29.64 in 10.0 mi Calm Calm - 0.02 in Rain Light Rain
12:56 AM 44.8 °F - 43.0 °F 93% 29.64 in 10.0 mi Calm Calm - 0.02 in Rain Rain
1:16 AM 44.8 °F - 43.0 °F 93% 29.64 in 10.0 mi Calm Calm - 0.01 in   Drizzle
1:36 AM 44.8 °F - 43.2 °F 94% 29.64 in 10.0 mi Calm Calm - 0.02 in   Drizzle
1:56 AM 44.8 °F - 43.2 °F 94% 29.64 in 10.0 mi Calm Calm - 0.02 in   Drizzle
2:16 AM 44.6 °F 43.1 °F 42.8 °F 93% 29.64 in 10.0 mi NW 3.5 mph - N/A   Drizzle
2:36 AM 44.1 °F 42.5 °F 41.9 °F 92% 29.65 in 10.0 mi NNW 3.5 mph - N/A Rain Light Rain
2:56 AM 43.7 °F 42.1 °F 41.4 °F 91% 29.66 in 10.0 mi NNW 3.5 mph - N/A   Light Drizzle
3:16 AM 43.7 °F - 41.2 °F 91% 29.66 in 10.0 mi Calm Calm - N/A   Light Drizzle
3:36 AM 43.2 °F 41.5 °F 40.6 °F 91% 29.66 in 10.0 mi NNW 3.5 mph - N/A   Overcast
3:56 AM 43.0 °F - 40.5 °F 91% 29.66 in 10.0 mi Calm Calm - N/A   Overcast
4:16 AM 42.8 °F - 40.3 °F 91% 29.66 in 10.0 mi Calm Calm - N/A Rain Light Rain
4:36 AM 42.4 °F 39.6 °F 40.1 °F 91% 29.68 in 10.0 mi NNW 4.6 mph - 0.01 in Rain Rain
4:56 AM 42.1 °F 40.2 °F 39.6 °F 91% 29.68 in 10.0 mi NW 3.5 mph - 0.01 in   Light Drizzle
5:15 AM 41.9 °F 40.0 °F 39.6 °F 91% 29.68 in 10.0 mi NNW 3.5 mph - N/A Rain Light Rain
5:36 AM 41.9 °F 40.0 °F 39.6 °F 91% 29.69 in 10.0 mi NNW 3.5 mph - N/A   Overcast
5:56 AM 41.9 °F 40.0 °F 39.4 °F 91% 29.71 in 10.0 mi NNW 3.5 mph - N/A   Overcast
6:15 AM 41.9 °F - 39.2 °F 90% 29.71 in 10.0 mi Calm Calm - N/A Rain Light Rain
6:36 AM 41.5 °F 39.6 °F 38.8 °F 90% 29.72 in 10.0 mi NW 3.5 mph - N/A Rain Rain
6:56 AM 41.4 °F - 38.7 °F 90% 29.72 in 10.0 mi Calm Calm - N/A   Drizzle
7:15 AM 41.0 °F - 38.3 °F 90% 29.73 in 10.0 mi Calm Calm - N/A   Light Drizzle
7:36 AM 41.0 °F - 38.3 °F 90% 29.74 in 10.0 mi Calm Calm - N/A   Overcast
7:56 AM 40.5 °F - 37.8 °F 90% 29.75 in 10.0 mi Calm Calm - N/A   Overcast
8:15 AM 40.3 °F - 37.8 °F 91% 29.76 in 10.0 mi Calm Calm - N/A   Overcast
8:36 AM 40.1 °F - 37.8 °F 91% 29.76 in 10.0 mi Calm Calm - N/A   Overcast
8:56 AM 40.1 °F - 37.4 °F 90% 29.77 in 10.0 mi Calm Calm - N/A   Scattered Clouds
9:15 AM 40.1 °F 38.0 °F 37.6 °F 91% 29.78 in 10.0 mi NW 3.5 mph - N/A   Mostly Cloudy
9:36 AM 40.3 °F - 37.8 °F 91% 29.79 in 10.0 mi Calm Calm - N/A   Overcast
9:56 AM 41.0 °F 39.0 °F 38.1 °F 89% 29.79 in 10.0 mi NW 3.5 mph - N/A   Mostly Cloudy
10:15 AM 41.9 °F 38.2 °F 38.5 °F 88% 29.80 in 10.0 mi NNW 5.8 mph - N/A   Overcast
10:36 AM 41.7 °F 37.3 °F 38.3 °F 88% 29.81 in 10.0 mi NNW 6.9 mph - N/A   Overcast
10:56 AM 41.4 °F 36.2 °F 37.6 °F 86% 29.81 in 10.0 mi North 8.1 mph - N/A   Overcast
11:16 AM 41.9 °F 38.2 °F 37.8 °F 85% 29.82 in 10.0 mi North 5.8 mph - N/A   Overcast
11:36 AM 41.9 °F 39.0 °F 37.6 °F 85% 29.83 in 10.0 mi NNW 4.6 mph - N/A   Overcast
11:56 AM 42.4 °F 39.6 °F 37.8 °F 83% 29.84 in 10.0 mi North 4.6 mph - N/A   Overcast
12:16 PM 42.4 °F - 37.9 °F 84% 29.84 in 10.0 mi Calm Calm - N/A   Overcast
12:36 PM 43.2 °F 39.0 °F 38.5 °F 84% 29.85 in 10.0 mi NNW 6.9 mph - N/A   Overcast
12:56 PM 41.7 °F 37.3 °F 37.6 °F 85% 29.86 in 7.0 mi NNE 6.9 mph - N/A   Drizzle
1:16 PM 42.8 °F 39.3 °F 39.0 °F 86% 29.86 in 10.0 mi North 5.8 mph - N/A Rain Light Rain
1:36 PM 42.6 °F 36.8 °F 38.1 °F 84% 29.87 in 10.0 mi North 10.4 mph - N/A   Overcast
1:56 PM 43.3 °F 38.6 °F 37.4 °F 80% 29.87 in 10.0 mi NNE 8.1 mph - N/A   Overcast
2:16 PM 44.1 °F 40.8 °F 37.2 °F 77% 29.87 in 10.0 mi North 5.8 mph - N/A   Overcast
2:36 PM 45.0 °F 41.2 °F 36.3 °F 72% 29.87 in 10.0 mi North 6.9 mph - N/A   Overcast
2:56 PM 46.2 °F 42.2 °F 35.2 °F 66% 29.88 in 10.0 mi NE 8.1 mph - N/A   Mostly Cloudy
3:16 PM 46.6 °F - 33.8 °F 61% 29.89 in 10.0 mi North 10.4 mph - N/A   Mostly Cloudy
3:36 PM 45.9 °F 41.7 °F 32.9 °F 61% 29.90 in 10.0 mi NNE 8.1 mph - N/A   Overcast
3:56 PM 46.6 °F - 31.1 °F 55% 29.91 in 10.0 mi NNE 8.1 mph - N/A   Mostly Cloudy
4:16 PM 47.7 °F - 31.1 °F 53% 29.92 in 10.0 mi North 9.2 mph - N/A   Mostly Cloudy
4:36 PM 46.9 °F - 30.9 °F 54% 29.93 in 10.0 mi North 6.9 mph - N/A   Mostly Cloudy
4:56 PM 46.0 °F 41.9 °F 30.6 °F 55% 29.93 in 10.0 mi NNE 8.1 mph - N/A   Mostly Cloudy
5:16 PM 45.3 °F 42.3 °F 30.4 °F 56% 29.94 in 10.0 mi North 5.8 mph - N/A   Scattered Clouds
5:36 PM 44.8 °F 41.6 °F 32.7 °F 63% 29.96 in 10.0 mi North 5.8 mph - N/A   Mostly Cloudy
5:56 PM 44.6 °F 43.1 °F 33.8 °F 66% 29.97 in 10.0 mi North 3.5 mph - N/A   Overcast
6:16 PM 43.9 °F 41.3 °F 33.1 °F 66% 29.98 in 10.0 mi North 4.6 mph - N/A   Overcast
6:36 PM 43.3 °F 41.7 °F 33.3 °F 68% 29.98 in 10.0 mi NNE 3.5 mph - N/A   Overcast
6:56 PM 42.3 °F 38.6 °F 33.4 °F 71% 29.99 in 10.0 mi NNE 5.8 mph - N/A   Mostly Cloudy
7:16 PM 41.5 °F 38.6 °F 33.1 °F 72% 30.00 in 10.0 mi NNE 4.6 mph - N/A   Mostly Cloudy
7:36 PM 41.5 °F 38.6 °F 32.9 °F 71% 30.01 in 10.0 mi North 4.6 mph - N/A   Mostly Cloudy
7:56 PM 41.0 °F - 33.1 °F 73% 30.02 in 10.0 mi Calm Calm - N/A   Mostly Cloudy
8:16 PM 40.3 °F 37.1 °F 33.1 °F 75% 30.03 in 10.0 mi NNE 4.6 mph - N/A   Scattered Clouds
8:35 PM 40.1 °F 36.9 °F 33.1 °F 76% 30.04 in 10.0 mi NNE 4.6 mph - N/A   Scattered Clouds
8:56 PM 39.4 °F - 32.9 °F 78% 30.05 in 10.0 mi Calm Calm - N/A   Overcast
9:16 PM 39.0 °F 36.8 °F 32.9 °F 79% 30.06 in 10.0 mi North 3.5 mph - N/A   Mostly Cloudy
9:35 PM 39.4 °F 36.1 °F 33.1 °F 78% 30.06 in 10.0 mi NNE 4.6 mph - N/A   Overcast
9:56 PM 38.8 °F 36.5 °F 33.4 °F 81% 30.08 in 10.0 mi North 3.5 mph - N/A   Overcast
10:16 PM 39.0 °F 35.7 °F 32.7 °F 78% 30.08 in 10.0 mi NNE 4.6 mph - N/A   Overcast
10:35 PM 38.7 °F 32.4 °F 32.0 °F 77% 30.09 in 10.0 mi NE 9.2 mph - N/A   Overcast
10:56 PM 38.5 °F 33.4 °F 31.1 °F 75% 30.10 in 10.0 mi NNE 6.9 mph - N/A   Overcast
11:16 PM 37.9 °F 32.7 °F 31.1 °F 76% 30.11 in 10.0 mi NNE 6.9 mph - N/A   Overcast
11:35 PM 37.6 °F 34.0 °F 31.1 °F 77% 30.12 in 10.0 mi NNE 4.6 mph - N/A   Overcast
11:56 PM 37.4 °F 32.1 °F 30.9 °F 77% 30.12 in 10.0 mi NE 6.9 mph - N/A   Overcast